VK2ADG-1 Weather Reports


time (UTC)temp
C
wind
direction
speed
KPH
gust
KPH
rain 1hr
cm
rain 24hr
cm
rain mn
cm
humidity
%
barometer
mb
20260503202021 15 337 4.8 6.4 0.00 0.03 0.03 90 1015.1
20260503201018 15 334 4.8 8.0 0.00 0.03 0.03 90 1015.1
20260503200016 15 321 4.8 9.7 0.00 0.03 0.03 90 1014.9
20260503195055 15 320 4.8 9.7 0.00 0.03 0.03 91 1014.6
20260503194032 14 319 4.8 8.0 0.00 0.03 0.03 93 1014.6
20260503193029 14 326 4.8 8.0 0.00 0.03 0.03 94 1014.7
20260503192027 14 326 4.8 6.4 0.00 0.03 0.03 94 1014.9
20260503191045 13 333 4.8 6.4 0.00 0.00 0.00 96 1015.0
20260503190022 13 330 3.2 6.4 0.00 0.00 0.00 96 1015.2
20260503185019 14 316 4.8 6.4 0.00 0.00 0.00 95 1015.4
20260503184017 14 324 4.8 6.4 0.00 0.00 0.00 95 1015.5
20260503183035 14 331 4.8 6.4 0.00 0.00 0.00 95 1015.5
20260503182032 14 327 3.2 6.4 0.00 0.00 0.00 95 1015.5
20260503181031 14 323 4.8 6.4 0.00 0.00 0.00 96 1015.6
20260503180028 14 323 3.2 6.4 0.00 0.00 0.00 95 1015.6
20260503175025 14 322 3.2 6.4 0.00 0.00 0.00 95 1015.7
20260503174023 14 317 3.2 4.8 0.00 0.00 0.00 95 1015.8
20260503173021 14 322 4.8 6.4 0.00 0.00 0.00 95 1015.8
20260503172019 14 314 4.8 6.4 0.00 0.00 0.00 94 1015.9
20260503171015 14 313 4.8 8.0 0.00 0.00 0.00 94 1016.1
20260503131020 15 331 4.8 6.4 0.00 0.00 0.00 88 1017.1
20260503081030 18 335 3.2 6.4 0.00 0.00 0.00 73 1017.3
20260503072038 19 5 6.4 9.7 0.00 0.00 0.00 68 1017.0
20260503071036 20 13 6.4 12.9 0.00 0.00 0.00 68 1016.9
20260503055037 22 41 9.7 19.3 0.00 0.00 0.00 58 1017.1
20260503054035 22 36 9.7 17.7 0.00 0.00 0.00 56 1017.1
20260503053032 23 15 6.4 17.7 0.00 0.00 0.00 50 1017.2
20260503052030 23 14 4.8 12.9 0.00 0.00 0.00 49 1017.4
20260503051027 23 18 8.0 17.7 0.00 0.00 0.00 49 1017.4
20260503050044 23 13 6.4 16.1 0.00 0.00 0.00 48 1017.3
20260503045022 23 20 4.8 12.9 0.00 0.00 0.00 49 1017.4
20260503044020 23 16 9.7 17.7 0.00 0.00 0.00 50 1017.5
20260503043059 23 7 4.8 12.9 0.00 0.00 0.00 50 1017.6
20260503042056 23 5 8.0 20.9 0.00 0.00 0.00 50 1017.5
20260503041033 23 345 6.4 22.5 0.00 0.00 0.00 50 1017.5
20260503040030 23 12 8.0 19.3 0.00 0.00 0.00 50 1017.6
20260503035028 23 14 4.8 11.3 0.00 0.00 0.00 50 1017.7
20260503034026 22 341 4.8 14.5 0.00 0.00 0.00 53 1017.9
20260503033023 22 4 6.4 12.9 0.00 0.00 0.00 54 1018.2
20260503032042 22 6 6.4 19.3 0.00 0.00 0.00 54 1018.3
20260503031019 22 7 6.4 14.5 0.00 0.00 0.00 53 1018.5
20260503030017 22 2 6.4 14.5 0.00 0.00 0.00 54 1018.5
20260503025034 21 351 8.0 14.5 0.00 0.00 0.00 56 1018.7
20260503024054 22 17 11.3 19.3 0.00 0.00 0.00 56 1018.8
20260503023030 22 31 9.7 16.1 0.00 0.00 0.00 55 1019.1
20260503022048 22 9 6.4 16.1 0.00 0.00 0.00 55 1019.3
20260503021025 21 26 8.0 12.9 0.00 0.00 0.00 58 1019.5
20260503020044 21 16 4.8 8.0 0.00 0.00 0.00 58 1019.6
20260503015020 21 3 4.8 9.7 0.00 0.00 0.00 58 1019.8
20260503014018 21 17 6.4 12.9 0.00 0.00 0.00 58 1020.0
20260503013055 21 5 8.0 16.1 0.00 0.00 0.00 58 1019.9
20260503012033 21 13 9.7 16.1 0.00 0.00 0.00 58 1020.1
20260503011031 21 24 8.0 20.9 0.00 0.00 0.00 60 1020.2
20260503010028 21 45 8.0 16.1 0.00 0.00 0.00 61 1020.3
20260503005026 20 48 6.4 12.9 0.00 0.00 0.00 64 1020.4
20260503004024 20 32 4.8 14.5 0.00 0.00 0.00 66 1020.7
20260503003021 19 18 6.4 12.9 0.00 0.00 0.00 67 1020.7
20260503002101 19 21 6.4 16.1 0.00 0.00 0.00 69 1020.9
20260503001017 18 15 6.4 11.3 0.00 0.00 0.00 70 1020.9
20260503000035 17 23 6.4 11.3 0.00 0.00 0.00 73 1021.1
20260502235033 17 10 8.0 19.3 0.00 0.00 0.00 75 1021.1
20260502234030 17 16 8.0 14.5 0.00 0.00 0.00 76 1021.0
20260502233027 17 10 9.7 12.9 0.00 0.00 0.00 76 1021.1
20260502232024 16 9 8.0 17.7 0.00 0.00 0.00 77 1021.2
20260502231043 16 16 8.0 14.5 0.00 0.00 0.00 79 1021.1
20260502230020 15 11 6.4 14.5 0.00 0.00 0.00 81 1021.0
20260502225018 15 6 8.0 16.1 0.00 0.00 0.00 81 1021.1
20260502224036 15 22 8.0 14.5 0.00 0.00 0.00 82 1021.0
20260502223034 15 19 9.7 16.1 0.00 0.00 0.00 83 1021.1
20260502222031 15 9 8.0 12.9 0.00 0.00 0.00 83 1021.4
20260502221028 15 10 9.7 14.5 0.00 0.00 0.00 83 1021.3
20260502220027 14 18 6.4 11.3 0.00 0.00 0.00 84 1021.2
20260502215024 14 8 8.0 12.9 0.00 0.00 0.00 85 1021.1
20260502214021 14 1 8.0 12.9 0.00 0.00 0.00 85 1021.1
20260502213039 14 16 8.0 14.5 0.00 0.00 0.00 85 1020.9
20260502212037 14 15 6.4 12.9 0.00 0.00 0.00 86 1020.8
20260502211035 14 17 8.0 12.9 0.00 0.00 0.00 86 1020.9
20260502210032 14 4 6.4 9.7 0.00 0.00 0.00 85 1020.9
20260502205031 14 4 6.4 8.0 0.00 0.00 0.00 85 1020.6
20260502204028 14 5 6.4 9.7 0.00 0.00 0.00 85 1020.4
20260502203046 14 13 6.4 11.3 0.00 0.00 0.00 85 1020.3